Location: Oak Glen
(34.0495°N, 116.9470°E)
Time: 09:52:42
(UTC-07:00)

Hubble Space Telescope - Pass Details

Date: 09 October 2017
Orbit: 537 x 541 km, 28.5° (Epoch: 17 October)

Event Time Altitude Azimuth Distance (km) Brightness Sun altitude
Exits shadow 13:25:18 28° 170° (S) 1,028 2.2 -23.1°
Drops below altitude 10° 13:28:11 10° 130° (SE) 1,783 4.0 -22.5°
Sets 13:30:38 0° 119° (ESE) 2,674 5.2 -22.0°
